Regional Weather Roundup
Issued by NWS

Home | Current Version | Previous Version | Graphics & Text | Print | Product List | Glossary On
Versions: 1 2 3 4 5 6 7 8 9 10 11 12 13 14 15 16 17 18 19 20 21 22 23 24 25 26 27 28 29 30 31 32 33 34 35 36 37 38 39 40 41 42 43 44 45 46 47 48 49 50
000
ASUS44 KMEG 230310
RWRTN
TENNESSEE HOURLY STATE WEATHER ROUNDUP
NATIONAL WEATHER SERVICE MEMPHIS TN
900 PM CST MON DEC 22 2014

TNZ002-004-019-021-049-052-054-088>092-230400-
WEST TENNESSEE

CITY           SKY/WX    TMP DP  RH WIND       PRES   REMARKS
MEMPHIS INTL   CLOUDY    57  55  93 S5        29.65R
NWS MEMPHIS      N/A     56 N/A N/A MISG        N/A
JACKSON        CLOUDY    56  53  90 S9        29.65R
DYERSBURG      CLOUDY    54  43  66 S3        29.65R
UNION CITY     CLOUDY    52  52 100 S9        29.62S
PARIS          CLOUDY    50  50 100 S12       29.65S
HUNTINGDON     CLOUDY    51  51 100 S9        29.66R
LEXINGTON      CLOUDY    52  52 100 S8        29.67R
SAVANNAH       CLOUDY    54  54 100 S9        29.69F
$$

TNZ008-025-027-028-033-062-065-066-230400-
NORTH MIDDLE TENNESSEE

CITY           SKY/WX    TMP DP  RH WIND       PRES   REMARKS
NASHVILLE      CLOUDY    54  48  82 S14       29.73R
CLARKSVILLE    CLOUDY    52  51  97 S5        29.69R
SMYRNA         CLOUDY    53  49  86 S10       29.75R
COOKEVILLE     CLOUDY    52  50  93 S10       29.75S
CROSSVILLE     CLOUDY    49  46  90 VRB3      29.80S
$$

TNZ061-075-076-078-094-096-097-230400-
SOUTH MIDDLE TENNESSEE

CITY           SKY/WX    TMP DP  RH WIND       PRES   REMARKS
FAYETTEVILLE   CLOUDY    46  46 100 MISG      29.77S
TULLAHOMA      CLOUDY    46  46 100 SE10      29.78R
WINCHESTER     CLOUDY    48  46  93 SE16      29.79R
MCMINNVILLE    CLOUDY    52  52 100 CALM      29.77R
COLUMBIA       CLOUDY   N/A N/A N/A S10       29.72R
SHELBYVILLE    MOCLDY    50  48  93 SE12      29.77R
$$

TNZ017-018-042-046-047-230400-
NORTHEAST TENNESSEE

CITY           SKY/WX    TMP DP  RH WIND       PRES   REMARKS
TRI CITIES     CLOUDY    46  39  76 E7        29.88F
ELIZABETHTON   MOCLDY    48  41  76 E5        29.89F
$$

TNZ012-013-036-069-073-074-230400-
CENTRAL EAST TENNESSEE

CITY           SKY/WX    TMP DP  RH WIND       PRES   REMARKS
KNOXVILLE      LGT RAIN  49  45  86 W6        29.82S
OAK RIDGE      CLOUDY    49  47  93 CALM      29.84S
GATLINBURG     MOCLDY    46  45  93 SW3       29.83R
MORRISTOWN     PTCLDY    50  45  81 E8        29.83F
$$

TNZ083-085-099-230400-
SOUTHEAST TENNESSEE

CITY           SKY/WX    TMP DP  RH WIND       PRES   REMARKS
CHATTANOOGA    LGT RAIN  48  45  89 S8        29.86R FOG
$$

SKY/WX REPORTED AS FAIR MEANS FEW OR NO CLOUDS BELOW
12 THOUSAND FEET.




USA.gov is the U.S. government's official web portal to all federal, state and local government web resources and services.